| time (UTC) | temp F | wind direction | speed MPH | gust MPH | rain 1hr in | rain 24hr in | rain mn in | humidity % | barometer mb |
| 20260505021529 | 38 | 360 | 0.0 | 6.0 | 0.03 | 0.03 | 0.03 | 90 | 1011.1 |
| 20260505020024 | 39 | 34 | 2.0 | 8.0 | 0.00 | 0.00 | 0.00 | 88 | 1010.5 |
| 20260505014521 | 41 | 49 | 3.0 | 8.0 | 0.00 | 0.00 | 0.00 | 81 | 1010.6 |
| 20260505013020 | 42 | 360 | 1.0 | 6.0 | 0.00 | 0.00 | 0.00 | 77 | 1010.1 |
| 20260505011524 | 43 | 72 | 0.0 | 4.0 | 0.00 | 0.00 | 0.00 | 77 | 1010.4 |
| 20260505010018 | 44 | 98 | 1.0 | 5.0 | 0.00 | 0.00 | 0.00 | 72 | 1010.1 |
| 20260505004522 | 44 | 101 | 0.0 | 7.0 | 0.00 | 0.00 | 0.00 | 71 | 1010.0 |
| 20260505003017 | 44 | 360 | 0.0 | 5.0 | 0.00 | 0.00 | 0.00 | 69 | 1010.0 |
| 20260505001517 | 45 | 111 | 1.0 | 7.0 | 0.00 | 0.00 | 0.00 | 72 | 1010.0 |
| 20260505000024 | 44 | 360 | 1.0 | 4.0 | 0.00 | 0.00 | 0.00 | 69 | 1010.0 |
| 20260504234516 | 44 | 28 | 0.0 | 4.0 | 0.00 | 0.00 | 0.00 | 70 | 1010.1 |
| 20260504233015 | 44 | 360 | 0.0 | 2.0 | 0.00 | 0.00 | 0.00 | 67 | 1009.9 |
| 20260504231515 | 44 | 360 | 1.0 | 5.0 | 0.00 | 0.00 | 0.00 | 67 | 1009.6 |
| 20260504230015 | 44 | 360 | 0.0 | 4.0 | 0.00 | 0.00 | 0.00 | 67 | 1009.3 |
| 20260504224519 | 45 | 334 | 0.0 | 3.0 | 0.00 | 0.00 | 0.00 | 69 | 1009.6 |
| 20260504223014 | 45 | 331 | 0.0 | 7.0 | 0.00 | 0.00 | 0.00 | 71 | 1010.0 |
| 20260504221512 | 46 | 360 | 1.0 | 7.0 | 0.00 | 0.00 | 0.00 | 62 | 1010.4 |
| 20260504220011 | 46 | 53 | 1.0 | 6.0 | 0.00 | 0.00 | 0.00 | 58 | 1009.6 |
| 20260504214518 | 47 | 32 | 0.0 | 8.0 | 0.00 | 0.00 | 0.00 | 53 | 1009.4 |
| 20260504213010 | 48 | 360 | 3.0 | 11.0 | 0.00 | 0.00 | 0.00 | 50 | 1009.0 |
| 20260504211521 | 52 | 32 | 4.0 | 11.0 | 0.00 | 0.00 | 0.00 | 41 | 1009.0 |
| 20260504210009 | 55 | 30 | 3.0 | 8.0 | 0.00 | 0.00 | 0.00 | 33 | 1008.6 |
| 20260504204515 | 57 | 360 | 2.0 | 8.0 | 0.00 | 0.00 | 0.00 | 31 | 1008.7 |
| 20260504203009 | 56 | 360 | 4.0 | 12.0 | 0.00 | 0.00 | 0.00 | 31 | 1009.0 |
| 20260504201505 | 54 | 360 | 1.0 | 12.0 | 0.00 | 0.00 | 0.00 | 37 | 1009.1 |
| 20260504200003 | 51 | 360 | 6.0 | 16.0 | 0.00 | 0.00 | 0.00 | 46 | 1009.4 |
| 20260504194503 | 50 | 360 | 9.0 | 21.0 | 0.00 | 0.00 | 0.00 | 47 | 1009.5 |
| 20260504193003 | 51 | 360 | 10.0 | 20.0 | 0.00 | 0.00 | 0.00 | 43 | 1009.5 |
| 20260504191502 | 53 | 360 | 10.0 | 20.0 | 0.00 | 0.00 | 0.00 | 43 | 1009.4 |
| 20260504190001 | 55 | 360 | 10.0 | 22.0 | 0.00 | 0.00 | 0.00 | 39 | 1009.5 |
| 20260504184631 | 56 | 360 | 6.0 | 20.0 | 0.00 | 0.00 | 0.00 | 37 | 1009.4 |
| 20260504183100 | 56 | 161 | 3.0 | 18.0 | 0.00 | 0.00 | 0.00 | 34 | 1009.5 |
| 20260504181559 | 55 | 314 | 4.0 | 12.0 | 0.00 | 0.00 | 0.00 | 35 | 1009.6 |
| 20260504180057 | 56 | 317 | 5.0 | 14.0 | 0.00 | 0.00 | 0.00 | 37 | 1009.7 |
| 20260504174554 | 54 | 294 | 5.0 | 12.0 | 0.00 | 0.00 | 0.00 | 38 | 1010.0 |
| 20260504173054 | 53 | 360 | 5.0 | 11.0 | 0.00 | 0.00 | 0.00 | 39 | 1010.2 |
| 20260504171553 | 53 | 319 | 4.0 | 11.0 | 0.00 | 0.00 | 0.00 | 41 | 1010.2 |
| 20260504110106 | 36 | 360 | 3.0 | 6.0 | 0.00 | 0.00 | 0.00 | 52 | 1010.9 |
| 20260504081538 | 40 | 360 | 3.0 | 7.0 | 0.00 | 0.00 | 0.00 | 47 | 1011.7 |
| 20260504050009 | 40 | 360 | 2.0 | 5.0 | 0.00 | 0.00 | 0.00 | 55 | 1013.4 |
| 20260504044507 | 41 | 360 | 2.0 | 5.0 | 0.00 | 0.00 | 0.00 | 54 | 1013.6 |
| 20260504043008 | 42 | 360 | 2.0 | 6.0 | 0.00 | 0.00 | 0.00 | 52 | 1013.7 |
| 20260504041505 | 43 | 360 | 2.0 | 5.0 | 0.00 | 0.00 | 0.00 | 50 | 1013.9 |
| 20260504040006 | 45 | 360 | 1.0 | 5.0 | 0.00 | 0.00 | 0.00 | 47 | 1014.1 |
| 20260504034508 | 47 | 360 | 0.0 | 6.0 | 0.00 | 0.00 | 0.00 | 41 | 1014.3 |
| 20260504033012 | 47 | 360 | 3.0 | 10.0 | 0.00 | 0.00 | 0.00 | 39 | 1014.3 |
| 20260504031506 | 47 | 360 | 3.0 | 12.0 | 0.00 | 0.00 | 0.00 | 41 | 1014.4 |
| 20260504030003 | 46 | 289 | 1.0 | 5.0 | 0.00 | 0.00 | 0.00 | 47 | 1014.4 |
| 20260504024508 | 47 | 288 | 0.0 | 4.0 | 0.00 | 0.00 | 0.00 | 42 | 1014.3 |
| 20260504023002 | 48 | 288 | 2.0 | 8.0 | 0.00 | 0.00 | 0.00 | 41 | 1014.3 |